019  
ASUS43 KMPX 180210  
RWRMN  
WEATHER ROUNDUP FOR MINNESOTA  
NATIONAL WEATHER SERVICE TWIN CITIES/CHANHASSEN MN  
900 PM CDT SAT APR 17 2021  
 
NOTE: "FAIR" INDICATES FEW OR NO CLOUDS BELOW 12,000 FEET WITH NO  
SIGNIFICANT WEATHER AND/OR S TO VISIBILITY
. N/A MEANS  
CURRENT SKY AND/OR WEATHER CONDITIONS ARE NOT AVAILABLE.  
 
MNZ060>063-068>070-180300-  
TWIN CITIES METRO  
 
CITY SKY/WX TMP DP RH WIND PRES REMARKS
 
TWIN CITIES MOCLDY 53 26 35 NW8 29.99R  
ST PAUL CLOUDY 53 27 36 N8 29.99R  
CRYSTAL PTCLDY 51 25 36 NW3 29.98R  
BLAINE PTCLDY 50 25 37 NW3 29.99R  
LAKEVILLE CLOUDY 48 27 43 W5 30.00R  
EDEN PRAIRIE CLOUDY 52 28 39 NW5 29.98S  
SOUTH ST PAUL CLOUDY 53 25 34 NW6 29.98S  
LAKE ELMO MOCLDY 50 28 43 NW3 29.99S  

 
MNZ001>005-007-008-013>017-022>024-027-028-180300-  
NORTHWEST MINNESOTA  
 
CITY SKY/WX TMP DP RH WIND PRES REMARKS
 
BEMIDJI CLEAR 46 24 42 W5 29.97S  
HALLOCK PTCLDY 46 30 53 CALM 29.96S  
ROSEAU CLEAR 46 N/A N/A W7 29.95F  
WARROAD CLEAR 45 30 57 SW3 29.95S  
THIEF RVR FALL CLEAR 48 27 44 NW6 29.98F  
CROOKSTON CLEAR 46 27 46 CALM 29.98F  
FOSSTON CLEAR 41 28 60 SW3 29.98S  
MOORHEAD CLEAR 50 28 43 CALM 30.00S  
PARK RAPIDS CLEAR 40 26 57 W6 29.98S  
MAHNOMEN FAIR 46 32 58 S3 29.98S  

 
MNZ006-009>011-018-025>026-180300-  
NORTH CENTRAL MINNESOTA  
 
CITY SKY/WX TMP DP RH WIND PRES REMARKS
 
BAUDETTE CLEAR 45 27 49 W5 29.94S  
INTL FALLS CLEAR 38 26 62 CALM 29.93S  
WASKISH CLEAR 45 34 65 SW5 29.95S  
BIG FORK CLEAR 39 25 56 CALM 30.00S  
LONGVILLE CLEAR 43 28 56 CALM 29.97S  
GRAND RAPIDS CLEAR 47 21 35 W6 29.98S  
CRANE LAKE CLEAR 34 25 69 CALM 29.97R  
ORR CLEAR 41 23 48 CALM 29.93S  
COOK CLEAR 45 19 36 CALM 29.95R  
WALKER CLEAR 44 20 38 CALM 29.98S  

 
MNZ012-019>021-037-180300-  
NORTHEAST MINNESOTA  
 
CITY SKY/WX TMP DP RH WIND PRES REMARKS
 
DULUTH PTCLDY 44 21 40 W7 29.94R  
ELY CLEAR 39 19 45 CALM 29.93S  
HIBBING CLEAR 36 21 54 NW3 29.94S  
EVELETH CLEAR 48 23 37 N3 29.95S  
DULUTH HARBOR CLEAR 52 30 43 W6 29.95R  
TWO HARBORS CLEAR 43 21 42 CALM 29.93R  
SILVER BAY CLEAR 36 18 48 CALM 29.93S  
GRAND MARAIS N/A 32 26 78 CALM 29.95S  
G MARAIS ARPRT CLEAR 36 9 32 CALM 29.92S  

 
MNZ029>031-032-039>041-046>048-054>057-064-180300-  
WEST CENTRAL MINNESOTA  
 
CITY SKY/WX TMP DP RH WIND PRES REMARKS
 
FERGUS FALLS CLEAR 48 28 46 CALM 29.97S  
MORRIS CLEAR 45 23 42 CALM 30.02S  
ALEXANDRIA CLEAR 45 24 43 N3 30.01S  
ELBOW LAKE FAIR 43 35 74 CALM 30.01S  
WADENA N/A 46 27 46 CALM 30.00S  
GLENWOOD CLEAR 45 27 49 NW5 30.02R  
APPLETON CLEAR 46 27 46 W3 30.02S  
BENSON CLEAR 43 28 56 CALM 30.03S  
ORTONVILLE CLEAR 46 30 53 W3 30.02S  
MADISON CLEAR 48 27 43 NW5 30.05S  
WILLMAR FAIR 46 28 49 NW3 30.05R  

 
MNZ033>034-036-042>043-049>051-058-059-180300-  
CENTRAL MINNESOTA  
 
CITY SKY/WX TMP DP RH WIND PRES REMARKS
 
ST CLOUD PTCLDY 46 25 43 W5 29.99R  
SAUK CENTRE FAIR 44 24 45 NW7 30.01R  
PAYNESVILLE CLEAR 41 28 60 W3 30.01R  
AITKIN CLEAR 41 27 56 CALM 29.97S  
PINE RIVER CLEAR 46 25 42 CALM 30.01S  
BRAINERD CLEAR 47 22 37 CALM 29.98R  
STAPLES CLEAR 43 25 49 W6 30.00R  
LONG PRAIRIE FAIR 45 23 42 NW5 30.01S  
LITTLE FALLS CLEAR 45 19 36 W3 30.00R  
CAMP RIPLEY FAIR 47 23 39 NW9 30.00R  
LITCHFIELD PTCLDY 48 30 49 W3 30.01S  
BUFFALO PTCLDY 48 26 42 MISG 30.01R  
MAPLE LAKE N/A 46 31 56 CALM 30.01R  
HUTCHINSON PTCLDY 47 28 47 NW3 30.02S  

 
MNZ037-044-045-052-053-180300-  
EAST CENTRAL MINNESOTA  
 
CITY SKY/WX TMP DP RH WIND PRES REMARKS
 
PRINCETON CLEAR 43 27 52 CALM 29.99R  
MORA CLEAR 45 30 57 CALM 30.00R  
CAMBRIDGE CLEAR 46 28 49 CALM 29.99R  
RUSH CITY PTCLDY 47 23 38 NW3 29.98S  
MOOSE LAKE PTCLDY 46 23 39 NW3 29.95R  
HINCKLEY CLEAR 50 27 40 CALM 29.97R  
CLOQUET CLEAR 45 19 36 W5 29.94S  
MCGREGOR CLEAR 48 19 32 NW5 29.97S  

 
MNZ071>073-080-081-089-090-097-098-180300-  
SOUTHWEST MINNESOTA  
 
CITY SKY/WX TMP DP RH WIND PRES REMARKS
 
MONTEVIDEO CLEAR 48 19 32 CALM 30.03S  
GRANITE FALLS CLEAR 46 28 49 NW6 30.04S  
CANBY CLEAR 46 28 49 W5 30.05S  
MARSHALL CLEAR 44 24 45 NW8 30.04R  
REDWOOD FALLS CLEAR 49 23 36 NW6 30.02R  
OLIVIA CLEAR 45 25 45 NW5 30.02R  
PIPESTONE CLEAR 46 25 42 N5 30.05R  
WINDOM CLEAR 43 23 45 NW8 30.03R  
WORTHINGTON PTCLDY 44 24 45 NW8 30.05R  
JACKSON PTCLDY 43 27 52 NW5 30.03S  
TRACY CLEAR 46 18 33 NW5 30.03S  
SLAYTON CLEAR 44 20 38 NW6 30.05R  

 
MNZ065>067-074>077-082>085-091>093-180300-  
SOUTH CENTRAL MINNESOTA  
 
CITY SKY/WX TMP DP RH WIND PRES REMARKS
 
MANKATO MOCLDY 50 28 42 NW5 30.02R  
NEW ULM CLEAR 46 23 39 NW7 30.02R  
ST JAMES CLEAR 46 27 46 W3 30.02S  
FAIRMONT CLEAR 45 29 53 NW7 30.03R  
GLENCOE PTCLDY 47 27 45 NW5 30.00R  
FARIBAULT N/A 52 28 40 NW3 30.00R  
OWATONNA CLEAR 46 30 53 W3 30.00R  
WASECA CLEAR 43 28 56 NW5 30.01S  
ALBERT LEA CLOUDY 54 32 43 NW5 30.00R  

 
MNZ078>079-086>088-094>096-180300-  
SOUTHEAST MINNESOTA  
 
CITY SKY/WX TMP DP RH WIND PRES REMARKS
 
ROCHESTER CLOUDY 50 30 46 NW8 29.99R  
RED WING CLOUDY 52 25 35 N3 29.98R  
STANTON CLOUDY 51 30 45 NW6 29.98R  
DODGE CENTER CLOUDY 52 28 40 NW7 29.99R  
WINONA MOCLDY 52 32 46 CALM 29.97R  
AUSTIN CLOUDY 52 32 46 NW6 29.99S  
PRESTON PTCLDY 49 28 43 N6 29.98R  

 
ABBREVIATIONS USED IN REMARKS  
TC - TEMPERATURES IN CELSIUS  
WCI - WIND CHILL INDEX  
HX - HEAT INDEX  
VSB - VISIBILITY  

 
 
 
CLICK HERE TO GO TO PREVIOUS BULLETINS.

The Nexlab MN Page Main Text Page